Home   Weather   Vancouver   Past weeks

Flag for Canada Past Weather in Vancouver, British Columbia, Canada — Yesterday and Last 2 Weeks

Now
59 °F

Mostly cloudy.


Feels Like: 56 °F
Forecast: 47 / 56 °F
Wind: 15 mph from East

Location: Vancouver International Airport

Current Time: Oct 1, 2016 at 1:52:20 PM

Latest Report: Oct 1, 2016 at 1:00 PM


Visibility: 15 mi

Pressure: 29.91 "Hg

Humidity: 63%

Dew Point: 46 °F

Location of VancouverLocation

Past Weather in Vancouver — Graph

°F

Vancouver Temperature Yesterday

Maximum temperature yesterday: 57 °F (at 3:00 PM)
Minimum temperature yesterday: 43 °F (at 3:00 AM)
Average temperature yesterday: 51 °F

High & Low Weather Summary for the Past Weeks

 TemperatureHumidityPressure
High68 °F (Sep 16, 12:00 PM)100% (Sep 17, 9:00 AM)30.43 "Hg (Sep 17, 9:00 AM)
Low43 °F (Sep 30, 3:00 AM)52% (Sep 22, 5:00 PM)29.80 "Hg (Sep 17, 11:00 AM)
Average56 °F84%30.08 "Hg
* Reported Sep 16 12:00 PM — Oct 1 12:00 PM, Vancouver, Weather by CustomWeather, © 2016

Note: Actual official high and low records may vary slightly from our data, if they occured in-between our weather recording intervals... More about our weather records

Advertising

Vancouver Weather History for the Previous 24 Hours

Scroll right to see more
 ConditionsComfort  
Time TempWeatherWind HumidityBarometerVisibility
12:00 PM
Sat, Oct 1
59 °FBroken clouds.15 mph68%29.90 "Hg15 mi
11:00 AM57 °FBroken clouds.15 mph67%29.90 "Hg15 mi
10:00 AM57 °FSprinkles. Mostly cloudy.10 mph72%29.90 "Hg15 mi
9:00 AM55 °FSprinkles. Mostly cloudy.9 mph72%29.91 "Hg15 mi
8:00 AM54 °FMostly cloudy.8 mph77%29.91 "Hg15 mi
7:00 AM52 °FMostly cloudy.9 mph82%29.92 "Hg15 mi
6:00 AM52 °FPartly cloudy.10 mph82%29.91 "Hg15 mi
5:00 AM52 °FOvercast.9 mph82%29.92 "Hg15 mi
4:00 AM50 °FLight rain. Passing clouds.8 mph94%29.93 "Hg15 mi
3:00 AM48 °FMostly cloudy.3 mph87%29.93 "Hg15 mi
2:00 AM52 °FPassing clouds.5 mph82%29.94 "Hg15 mi
1:00 AM54 °FMostly cloudy.7 mph82%29.94 "Hg15 mi
12:00 AM54 °FMostly cloudy.7 mph82%29.94 "Hg20 mi
11:00 PM
Fri, Sep 30
52 °FPassing clouds.8 mph94%29.94 "Hg20 mi
10:00 PM50 °FPartly cloudy.7 mph88%29.94 "Hg20 mi
9:00 PM50 °FPassing clouds.6 mph82%29.93 "Hg20 mi
8:00 PM50 °FPassing clouds.2 mph88%29.93 "Hg20 mi
7:00 PM54 °FPassing clouds.7 mph82%29.94 "Hg20 mi
6:00 PM55 °FPassing clouds.3 mph82%29.94 "Hg15 mi
5:00 PM57 °FPassing clouds.3 mph77%29.95 "Hg15 mi
4:00 PM57 °FPassing clouds.7 mph77%29.96 "Hg30 mi
3:00 PM57 °FPassing clouds.7 mph77%29.98 "Hg15 mi
2:00 PM55 °FPassing clouds.7 mph88%29.99 "Hg15 mi
1:00 PM55 °FScattered clouds.7 mph82%30.01 "Hg15 mi
Weather by CustomWeather, © 2016

See weather overviewHow to use our weather pages